WB7CYS Weather Reports


Display with metric or nautical units.
time (UTC)temp
F
wind
direction
speed
MPH
gust
MPH
rain 1hr
in
rain 24hr
in
rain mn
in
humidity
%
barometer
mb
20260505053022 64 108 9.0 12.0 0.00 0.00 0.00 55 1003.9
20260505051522 65 93 12.0 16.0 0.00 0.00 0.00 54 1003.8
20260505041518 65 89 7.0 9.0 0.00 0.00 0.00 54 1003.7
20260505040018 66 89 6.0 9.0 0.00 0.00 0.00 53 1003.7
20260505034519 66 92 6.0 8.0 0.00 0.00 0.00 54 1003.5
20260505033029 66 98 6.0 8.0 0.00 0.00 0.00 57 1003.4
20260505031516 67 122 3.0 5.0 0.00 0.00 0.00 56 1003.2
20260505030016 69 107 4.0 5.0 0.00 0.00 0.00 54 1003.3
20260505024533 72 91 5.0 6.0 0.00 0.00 0.00 50 1003.2
20260505023015 75 91 4.0 5.0 0.00 0.00 0.00 42 1003.3
20260505021528 76 89 4.0 5.0 0.00 0.00 0.00 37 1003.3
20260505020011 77 77 5.0 6.0 0.00 0.00 0.00 36 1003.3
20260505014510 77 84 5.0 5.0 0.00 0.00 0.00 34 1003.3
20260505013009 77 74 4.0 6.0 0.00 0.00 0.00 35 1003.6
20260505011508 78 70 3.0 5.0 0.00 0.00 0.00 36 1003.7
20260505010006 80 67 2.0 8.0 0.00 0.00 0.00 32 1003.8
20260505004513 79 7 4.0 11.0 0.00 0.00 0.00 32 1003.9
20260505003002 79 53 2.0 10.0 0.00 0.00 0.00 29 1003.8
20260505001600 79 338 9.0 11.0 0.00 0.00 0.00 29 1003.8
20260505000058 79 318 9.0 15.0 0.00 0.00 0.00 26 1003.8
20260504234557 79 326 10.0 14.0 0.00 0.00 0.00 28 1003.7
20260504233100 79 329 9.0 14.0 0.00 0.00 0.00 27 1003.9
20260504231549 79 314 8.0 11.0 0.00 0.00 0.00 30 1004.0
20260504230047 79 349 8.0 16.0 0.00 0.00 0.00 34 1004.1
20260504224545 79 308 8.0 13.0 0.00 0.00 0.00 35 1004.2
20260504223052 78 269 4.0 10.0 0.00 0.00 0.00 35 1004.4
20260504221546 78 285 7.0 13.0 0.00 0.00 0.00 34 1004.5
20260504220051 78 283 3.0 8.0 0.00 0.00 0.00 35 1004.6
20260504214537 79 319 2.0 5.0 0.00 0.00 0.00 33 1004.9
20260504213032 78 276 5.0 11.0 0.00 0.00 0.00 36 1005.1
20260504211529 77 249 1.0 13.0 0.00 0.00 0.00 34 1005.2
20260504210028 77 295 9.0 14.0 0.00 0.00 0.00 36 1005.2
20260504204531 76 253 6.0 8.0 0.00 0.00 0.00 36 1005.5
20260504203025 76 292 6.0 10.0 0.00 0.00 0.00 38 1005.7
20260504201519 75 295 3.0 11.0 0.00 0.00 0.00 36 1005.8
20260504200019 75 270 3.0 8.0 0.00 0.00 0.00 38 1005.9
20260504194517 75 162 3.0 8.0 0.00 0.00 0.00 37 1005.9
20260504193017 75 301 5.0 10.0 0.00 0.00 0.00 41 1006.1
20260504191514 74 245 3.0 8.0 0.00 0.00 0.00 39 1006.3
20260504190010 73 278 2.0 11.0 0.00 0.00 0.00 41 1006.4
20260504184513 73 207 2.0 10.0 0.00 0.00 0.00 40 1006.4
20260504183008 72 201 3.0 9.0 0.00 0.00 0.00 41 1006.5
20260504181505 71 209 6.0 8.0 0.00 0.00 0.00 43 1006.6
20260504180004 71 257 7.0 9.0 0.00 0.00 0.00 43 1006.7
20260504174502 70 285 5.0 8.0 0.00 0.00 0.00 45 1006.7
20260504173101 70 246 6.0 9.0 0.00 0.00 0.00 46 1006.7
20260504171558 69 228 4.0 8.0 0.00 0.00 0.00 43 1006.7
20260504081509 58 87 7.0 12.0 0.00 0.00 0.00 61 1006.2